DECAYED

SL-4 R/B, 100058 (Decayed)

Orbit data source: Space-Track

SL-4 R/B, 100058 was space debris in LEO originally from a launch on Tue, 14 Jul 2026 UTC launched from the Tyuratam Missile And Space Complex (TTMTR). Debris objects in space refer to the collection of defunct objects orbiting the Earth. Examples of debris include non-operational satellites, rocket bodies, and fragments generated from explosions, collisions, or faulty payload assembly.

Not visible in the next 10 days
Identifier
100058, 2026-162B
Orbit
Decayed
Country
Flag of CISCIS
Related business
Manufacturer
TsSKB-Progress
Mission
Decayed spacecraft
Bus & Motor
BLOK-I, RD-0110
Mass
2,350 kg wet, 2,350 kg dry
Launch date (UTC)
2026-07-14 (1 month ago)
Launch vehicle
Unknown
Launch site
Tyuratam Missile And Space Complex (TTMTR)
Object type
Payload
Rocket body
Debris
Shape & HBR
CYL, 8.0 m
Radar Cross Section
RCS unknown

Expand to show TLE details & history
Last TLE update: 1 month ago

TLE from 1 month ago
0 SL-4 R/B
1 A0058U 26162B   26198.30676475  .05230344  12382-4  41169-3 0  9999
2 A0058  51.6484 149.4423 0006861  88.6654 271.5159 16.39257397   392
Epoch: 2026-07-17T07:21Z
TLE epoch observation values (Epoch: 2026-07-17T07:21:44.474Z)
Latitude
0.00001°
Longitude
103.87125°
Altitude
168.433 km
Speed
7.807 km/s
True Right ascension
09h 57m 46s
True Declination
0° 00' 00"
Sunlit
Object was in daylight at epoch
Visualization orbit readout
Latitude
Unknown
Longitude
Unknown
Altitude
Unknown
Speed
Unknown
Apparent Right ascension
Unknown
Apparent Declination
Unknown
Sunlit
N/A
Visualization observer readout
Local Sidereal Time
16:17:31
Azimuth
Unknown
Elevation
Unknown
Doppler factor
Unknown
Orbital elements
Apogee altitude
172.796 km
Perigee altitude
163.813 km
Semi-major axis
6,546.441 km
Eccentricity
0.00069
Inclination
51.6484°
RAAN
149.4423°
Arg. of periapsis
88.6654°
True anomaly
271.4373°
Mean anomaly
271.5159°
Eccentric anomaly
271.4766°
Mean motion
4.09765 °/min
Orbital period
87.86 mins
BSTAR
0.00041169
Loading maneuver chart data...
Computing Atmospheric mass density...
Loading historical data...
Loading historical data...
Loading historical data...
Loading historical data...
Loading historical data...
Loading historical data...
Loading historical data...
Other satellites on launch #162 in the year 2026 (2026-07-14 UTC)

Documentation

Showing up to 5 results
|